York, NE

12:36 PM CST on December 14, 2019 (GMT -0600)
York Municipal

Weather History for KJYR - October, 2019

Change the Weather History Date:

Tuesday, October 22, 2019

  Actual Average Record
Temperature  
Mean Temperature 46 °F -  
Max Temperature 57 °F 64 °F 89 °F (2003)
Min Temperature 35 °F 39 °F 20 °F (1987)
Degree Days  
Heating Degree Days 19    
Moisture  
Dew Point 31 °F    
Average Humidity 58    
Maximum Humidity 87    
Minimum Humidity 33    
Precipitation  
Precipitation 0.00 in - - ()
Sea Level Pressure  
Sea Level Pressure 29.94 in    
Wind  
Wind Speed 14 mph (WNW)    
Max Wind Speed 21 mph    
Max Gust Speed 24 mph    
Visibility 10 miles    
Events      
Averages and records for this station are not official NWS values.
T = Trace of Precipitation, MM = Missing Value Source: NWS Daily Summary

Daily Weather History Graph

Daily Weather History Graph

Search for Another Location

Airport or City:

Astronomy

Oct. 22, 2019 Rise Set
Actual Time 7:49 AM CDT 6:39 PM CDT
Civil Twilight 7:21 AM CDT 7:07 PM CDT
Nautical Twilight 6:49 AM CDT 7:39 PM CDT
Astronomical Twilight 6:17 AM CDT 8:11 PM CDT
Moon 12:57 AM CDT (10/22) 3:53 PM CDT (10/22)
Length of Visible Light 11h 46m
Length of Day
10h 50m
Last Quarter, 37% of the Moon is Illuminated
Oct 22
Last Quarter
Oct 27
New
Nov 4
First Quarter
Nov 12
Full
Nov 19
Last Quarter

Hourly Weather History & Observations

Time (CDT) Temp. Windchill Dew Point Humidity Pressure Visibility Wind Dir Wind Speed Gust Speed Precip Events Conditions
12:15 AM 42.8 °F 34.0 °F 30.2 °F 61% 29.87 in 10.0 mi NW 20.7 mph 24.2 mph N/A   Clear
12:35 AM 41.0 °F 32.5 °F 30.2 °F 65% 29.87 in 10.0 mi NW 17.3 mph - N/A   Clear
1:15 AM 41.0 °F 33.5 °F 30.2 °F 65% 29.89 in 10.0 mi WNW 13.8 mph - N/A   Clear
1:35 AM 41.0 °F 33.1 °F 30.2 °F 65% 29.90 in 10.0 mi WNW 15.0 mph - N/A   Clear
1:55 AM 39.2 °F 32.0 °F 30.2 °F 70% 29.90 in 10.0 mi WNW 11.5 mph - N/A   Clear
2:15 AM 39.2 °F 30.8 °F 30.2 °F 70% 29.90 in 10.0 mi WNW 15.0 mph - N/A   Clear
2:35 AM 39.2 °F 30.8 °F 30.2 °F 70% 29.90 in 10.0 mi WNW 15.0 mph - N/A   Clear
2:55 AM 39.2 °F 31.2 °F 30.2 °F 70% 29.91 in 10.0 mi WNW 13.8 mph - N/A   Clear
3:15 AM 39.2 °F 30.5 °F 30.2 °F 70% 29.91 in 10.0 mi WNW 16.1 mph - N/A   Clear
3:35 AM 39.2 °F 30.2 °F 30.2 °F 70% 29.91 in 10.0 mi WNW 17.3 mph - N/A   Clear
3:55 AM 39.2 °F 30.8 °F 30.2 °F 70% 29.92 in 10.0 mi WNW 15.0 mph - N/A   Clear
4:15 AM 39.2 °F 29.8 °F 30.2 °F 70% 29.92 in 10.0 mi WNW 18.4 mph 21.9 mph N/A   Clear
4:35 AM 39.2 °F 29.8 °F 30.2 °F 70% 29.93 in 10.0 mi WNW 18.4 mph 23.0 mph N/A   Clear
4:55 AM 39.2 °F 29.8 °F 30.2 °F 70% 29.93 in 10.0 mi WNW 18.4 mph 23.0 mph N/A   Clear
5:15 AM 39.2 °F 30.8 °F 30.2 °F 70% 29.93 in 10.0 mi WNW 15.0 mph - N/A   Clear
5:35 AM 37.4 °F 28.5 °F 30.2 °F 75% 29.94 in 10.0 mi WNW 15.0 mph - N/A   Clear
5:55 AM 37.4 °F 28.9 °F 30.2 °F 75% 29.95 in 10.0 mi WNW 13.8 mph - N/A   Clear
6:15 AM 37.4 °F 28.9 °F 30.2 °F 75% 29.95 in 10.0 mi WNW 13.8 mph - N/A   Clear
6:35 AM 37.4 °F 28.5 °F 30.2 °F 75% 29.95 in 10.0 mi WNW 15.0 mph - N/A   Clear
6:55 AM 37.4 °F 28.2 °F 30.2 °F 75% 29.96 in 10.0 mi WNW 16.1 mph - N/A   Clear
7:15 AM 37.4 °F 28.5 °F 30.2 °F 75% 29.96 in 10.0 mi WNW 15.0 mph - N/A   Clear
7:35 AM 37.4 °F 28.5 °F 30.2 °F 75% 29.97 in 10.0 mi WNW 15.0 mph 19.6 mph N/A   Clear
7:55 AM 35.6 °F 27.5 °F 32.0 °F 87% 29.97 in 10.0 mi WNW 11.5 mph - N/A   Clear
8:15 AM 37.4 °F 29.8 °F 32.0 °F 81% 29.98 in 10.0 mi West 11.5 mph - N/A   Clear
8:35 AM 35.6 °F 27.5 °F 32.0 °F 87% 29.99 in 10.0 mi West 11.5 mph - N/A   Clear
8:55 AM 37.4 °F 30.3 °F 32.0 °F 81% 30.00 in 10.0 mi West 10.4 mph - N/A   Clear
9:15 AM 39.2 °F 30.8 °F 32.0 °F 75% 30.01 in 10.0 mi West 15.0 mph - N/A   Clear
9:35 AM 41.0 °F 32.8 °F 32.0 °F 70% 30.02 in 10.0 mi WNW 16.1 mph - N/A   Clear
9:55 AM 42.8 °F 34.5 °F 32.0 °F 66% 30.02 in 10.0 mi WNW 18.4 mph 23.0 mph N/A   Clear
10:15 AM 44.6 °F 36.9 °F 32.0 °F 61% 30.02 in 10.0 mi WNW 18.4 mph 24.2 mph N/A   Clear
10:35 AM 44.6 °F 36.9 °F 32.0 °F 61% 30.02 in 10.0 mi NW 18.4 mph 24.2 mph N/A   Clear
10:55 AM 46.4 °F - 32.0 °F 57% 30.02 in 10.0 mi North - - N/A   Clear
11:15 AM 46.4 °F - 30.2 °F 53% 30.02 in 10.0 mi North - - N/A   Clear
11:35 AM 50.0 °F - 32.0 °F 50% 30.02 in 10.0 mi North - - N/A   Clear
11:55 AM 50.0 °F - 30.2 °F 47% 30.01 in 10.0 mi North - - N/A   Clear
12:15 PM 50.0 °F - 30.2 °F 47% 30.01 in 10.0 mi North - - N/A   Partly Cloudy
12:35 PM 51.8 °F - 30.2 °F 44% 30.00 in 10.0 mi North - - N/A   Mostly Cloudy
12:55 PM 53.6 °F - 32.0 °F 44% 30.00 in 10.0 mi North - - N/A   Scattered Clouds
1:15 PM 53.6 °F - 32.0 °F 44% 29.99 in 10.0 mi North - - N/A   Scattered Clouds
1:35 PM 53.6 °F - 32.0 °F 44% 29.98 in 10.0 mi North - - N/A   Mostly Cloudy
1:55 PM 53.6 °F - 32.0 °F 44% 29.97 in 10.0 mi North - - N/A   Mostly Cloudy
2:15 PM 55.4 °F - 32.0 °F 41% 29.96 in 10.0 mi North - - N/A   Scattered Clouds
2:35 PM 55.4 °F - 32.0 °F 41% 29.95 in 10.0 mi North - - N/A   Mostly Cloudy
2:55 PM 53.6 °F - 32.0 °F 44% 29.95 in 10.0 mi North - - N/A   Partly Cloudy
3:15 PM 57.2 °F - 32.0 °F 38% 29.94 in 10.0 mi North - - N/A   Scattered Clouds
3:35 PM 55.4 °F - 30.2 °F 38% 29.93 in 10.0 mi North - - N/A   Mostly Cloudy
3:55 PM 55.4 °F - 30.2 °F 38% 29.93 in 10.0 mi North - - N/A   Scattered Clouds
4:15 PM 57.2 °F - 30.2 °F 36% 29.92 in 10.0 mi North - - N/A   Clear
4:35 PM 57.2 °F - 32.0 °F 38% 29.92 in 10.0 mi North - - N/A   Partly Cloudy
4:55 PM 57.2 °F - 32.0 °F 38% 29.92 in 10.0 mi North - - N/A   Partly Cloudy
5:15 PM 57.2 °F - 28.4 °F 33% 29.91 in 10.0 mi North - - N/A   Clear
5:35 PM 57.2 °F - 28.4 °F 33% 29.91 in 10.0 mi North - - N/A   Clear
5:55 PM 55.4 °F - 30.2 °F 38% 29.90 in 10.0 mi North - - N/A   Clear
6:15 PM 53.6 °F - 28.4 °F 38% 29.90 in 10.0 mi North - - N/A   Clear
6:35 PM 50.0 °F - 28.4 °F 43% 29.91 in 10.0 mi NNW 8.1 mph - N/A   Clear
6:55 PM 50.0 °F - 28.4 °F 43% 29.90 in 10.0 mi North - - N/A   Clear
7:15 PM 50.0 °F - 26.6 °F 40% 29.90 in 10.0 mi North - - N/A   Clear
7:35 PM 48.2 °F - 28.4 °F 46% 29.89 in 10.0 mi North - - N/A   Clear
7:55 PM 46.4 °F 43.5 °F 28.4 °F 50% 29.89 in 10.0 mi West 5.8 mph - N/A   Clear
8:15 PM 46.4 °F 43.5 °F 28.4 °F 50% 29.89 in 10.0 mi West 5.8 mph - N/A   Clear
8:35 PM 44.6 °F 40.7 °F 30.2 °F 57% 29.90 in 10.0 mi WSW 6.9 mph - N/A   Clear
8:55 PM 44.6 °F 40.7 °F 30.2 °F 57% 29.90 in 10.0 mi SW 6.9 mph - N/A   Clear
9:15 PM 44.6 °F 41.4 °F 32.0 °F 61% 29.89 in 10.0 mi SW 5.8 mph - N/A   Clear
9:35 PM 42.8 °F 39.3 °F 30.2 °F 61% 29.89 in 10.0 mi SW 5.8 mph - N/A   Partly Cloudy
9:55 PM 42.8 °F 38.6 °F 30.2 °F 61% 29.88 in 10.0 mi SW 6.9 mph - N/A   Partly Cloudy
10:15 PM 42.8 °F 38.6 °F 32.0 °F 66% 29.89 in 10.0 mi SW 6.9 mph - N/A   Mostly Cloudy
10:35 PM 42.8 °F - 33.8 °F 70% 29.89 in 10.0 mi Calm Calm - N/A   Overcast
10:55 PM 46.4 °F 44.3 °F 32.0 °F 57% 29.89 in 10.0 mi West 4.6 mph - N/A   Overcast
11:15 PM 44.6 °F - 33.8 °F 66% 29.88 in 10.0 mi Calm Calm - N/A   Overcast
11:35 PM 46.4 °F - 32.0 °F 57% 29.87 in 10.0 mi Calm Calm - N/A   Partly Cloudy
11:55 PM 46.4 °F - 32.0 °F 57% 29.87 in 10.0 mi Calm Calm - N/A   Mostly Cloudy